Location: Newark
(41.6500°N, 71.4833°W)
Time: 20:09:35
(UTC+00:00)

Explorer 11/Cluster Stage 4 - Visible Passes

Search period start: 21 January 2020 00:00
Search period end: 31 January 2020 00:00
Orbit: 467 x 1259 km, 28.8° (Epoch: 21 January)

Date Brightness Start Highest point End Pass type
(mag) Time Alt. Az. Time Alt. Az. Time Alt. Az.
21 Jan 8.7 23:06:19 10° WSW 23:11:03 22° SSW 23:15:07 10° SE visible
22 Jan 8.8 22:55:16 10° WSW 23:00:12 22° SSW 23:04:27 10° SE visible
23 Jan 8.9 22:44:15 10° WSW 22:49:20 22° SSW 22:53:44 10° SSE visible
24 Jan 9.0 22:33:14 10° WSW 22:38:26 22° SSW 22:42:58 10° SSE visible
25 Jan 9.1 22:22:15 10° WSW 22:27:31 21° SSW 22:32:09 10° SSE visible
